Skip Page Navigation
NASA JPL Caltech
NASA Logo - Jet Propulsion Laboratory + View the NASA Portal
+ Near-Earth Object (NEO) Program
Search JPL
JPL Home Earth Solar System Stars & Galaxies Technology
JPL Solar System Dynamics
BODIES ORBITS EPHEMERIDES TOOLS PHYSICAL DATA DISCOVERY FAQ SITE MAP
JPL Small-Body Database Browser
Search: [ help ]  
10812 Grotlingbo (1993 FZ25)
Classification: Main-belt Asteroid          SPK-ID: 2010812
Ephemeris | Orbit Diagram | Orbital Elements | Physical Parameters | Discovery Circumstances | Close-Approach Data ]

[ show orbit diagram ]
Orbital Elements at Epoch 2457000.5 (2014-Dec-09.0) TDB
Reference: JPL 14 (heliocentric ecliptic J2000)
 Element Value Uncertainty (1-sigma)   Units 
e .1123172657115172 5.0899e-08  
a 3.031824175626326 2.882e-08 AU
q 2.691297974101902 1.5293e-07 AU
i 1.858169913083045 5.7897e-06 deg
node 252.8083328363269 0.00023167 deg
peri 187.184966778837 0.0002354 deg
M 135.2054951591059 4.08e-05 deg
tp 2456276.320400061649
(2012-Dec-14.82040006)
0.00021413 JED
period 1928.210504099828
5.28
2.7493e-05
7.527e-08
d
yr
n .1867016071298002 2.6621e-09 deg/d
Q 3.37235037715075 3.2057e-08 AU
  Orbit Determination Parameters
   # obs. used (total)      1007  
   data-arc span      8100 days (22.18 yr)  
   first obs. used      1993-03-21  
   last obs. used      2015-05-25  
   planetary ephem.      DE431  
   SB-pert. ephem.      SB431-BIG16  
   condition code      0  
   fit RMS      .54827  
   data source      ORB  
   producer      Otto Matic  
   solution date      2015-Jun-04 16:09:46  

Additional Information
 Earth MOID = 1.70663 AU 
 T_jup = 3.232 
[ show covariance matrix ]

Ephemeris | Orbit Diagram | Orbital Elements | Physical Parameters | Discovery Circumstances | Close-Approach Data ]

Physical Parameter Table
Parameter Symbol Value Units Sigma Reference Notes
absolute magnitude H 13.3 mag n/a PDS3 (MPC 34773)  

10812 Grötlingbo           Discovered 1993 Mar. 21 at the European Southern Observatory in the course of the Uppsala-ESO Survey of Asteroids and Comets.
In the small parish of Grötlingbo on southern Gotland there is a well-preserved farm, Kattlunds, from the Middle Ages. Its first known owner from 1412 was Botulf Kattlund.
NOTE: some special characters may not display properly (any characters within {} are an attempt to place the proper accent above a character)
Reference: 20060219/MPCPages.arcLast Updated: 2010-06-03

[ show close-approach data ]
Ephemeris | Orbit Diagram | Orbital Elements | Physical Parameters | Discovery Circumstances | Close-Approach Data ]
ABOUT SSD CREDITS/AWARDS PRIVACY/COPYRIGHT GLOSSARY LINKS
FirstGov 2015-Jul-06 09:14 UT
(server date/time)  
NASA Home Page
Site Manager:   Ryan S. Park
Webmaster  Alan B. Chamberlin